sat.trackr.live / text

‹ back to catalog

STARLINK-37208

NORAD 68523 · 2026-068R

PAYLOAD ACTIVE UNKNOWN

§ Identity

Operator
Country
US
Launch date
2026-03-30
Launch site
AFETR
Launch vehicle
Mass (kg)
RCS (m²)

Purposes: comms

External: N2YO · Heavens-Above · Gunter

§ Orbital elements

Epoch: 2026-05-25T05:27:43.604064Z

Period
93.85 min
Inclination
53.1609°
Eccentricity
0.0001144
Mean motion
15.34397139 rev/d
Perigee alt
461.9 km
Apogee alt
463.5 km
Semi-major
6,840.8 km
B*
6.1583e-4
RAAN
132.3043°
Arg perigee
78.6543°
Mean anomaly
281.4588°
Rev number
868

§ Raw data

STARLINK-372081 68523U 26068R   26145.22758801  .00020486  00000+0  61583-3 0  99922 68523  53.1609 132.3043 0001144  78.6543 281.4588 15.34397139  8682

JSON: /api/v1/satellites/68523 · /tle

For live sub-satellite position, see the globe view (requires WebGL).

§ Visibility from observer

Set your observer location to see the next 7 days of passes ≥ 10°. The values pass through the URL so the page stays shareable.

No JS? Fill the form by hand. The geolocation button needs JavaScript.